Flag for Germany Weather past 2 weeks in Emmendingen, Baden-Württemberg, Germany

Now
72 °F

Sunny.


Feels Like: 77 °F
Forecast: 52 / 81 °F
Wind: 13 mph from North

Location: Lahr - CAN-AFB

Current Time: Jul 31, 2015 at 7:38:01 PM

Latest Report: Jul 31, 2015 at 7:20 PM


Visibility: 10 mi

Pressure: 29.92 "Hg

Humidity: 36%

Dew point: 43 °F

Location of EmmendingenLocation

Historic Weather in Emmendingen — Graph

°F

Emmendingen temperature yesterday

Maximum temperature yesterday: 72 °F (at 4:20 PM)
Minimum temperature yesterday: 54 °F (at 7:50 AM)
Average temperature yesterday: 66 °F

Past Weeks' High & Low Weather Summary

 TemperatureHumidityPressure
High99 °F (Jul 17, 2:50 PM)94% (Jul 29, 1:50 PM)30.12 "Hg (Jul 29, 1:50 PM)
Low50 °F (Jul 31, 7:20 AM)22% (Jul 17, 1:50 PM)29.68 "Hg (Jul 24, 5:50 PM)
Average76 °F51%29.94 "Hg
* Reported Jul 16 6:20 PM — Jul 31 6:20 PM, Emmendingen, Weather by CustomWeather, © 2015

Note: Actual official high and low records may vary slightly from our data, if they occured in-between our weather recording intervals... More about our weather records

Advertising

Emmendingen weather history for previous 24 hours

 ConditionsComfort  
Time TempWeatherWind HumidityBarometerVisibility
6:20 PM
Fri, Jul 31
73 °FSunny.15 mph33%29.92 "Hg10 mi
5:50 PM73 °FSunny.16 mph36%29.95 "Hg10 mi
5:20 PM77 °FSunny.18 mph34%29.95 "Hg10 mi
4:50 PM73 °FSunny.16 mph36%29.95 "Hg10 mi
4:20 PM75 °FSunny.16 mph36%29.95 "Hg10 mi
3:50 PM75 °FPassing clouds.13 mph36%29.98 "HgN/A
3:20 PM75 °FPassing clouds.14 mph39%29.98 "HgN/A
2:50 PM73 °FPassing clouds.14 mph41%29.98 "HgN/A
2:20 PM75 °FPassing clouds.13 mph39%30.01 "HgN/A
1:50 PM73 °FPassing clouds.15 mph41%30.01 "HgN/A
1:20 PM72 °FPassing clouds.12 mph44%30.01 "HgN/A
12:50 PM70 °FPassing clouds.12 mph43%30.04 "HgN/A
12:20 PM70 °FPassing clouds.10 mph46%30.04 "HgN/A
11:50 AM68 °FPassing clouds.9 mph46%30.07 "HgN/A
11:20 AM68 °FPassing clouds.9 mph46%30.07 "HgN/A
10:50 AM66 °FPassing clouds.8 mph52%30.07 "HgN/A
10:20 AM63 °FPassing clouds.7 mph56%30.07 "HgN/A
9:20 AM59 °FPassing clouds.6 mph63%30.09 "HgN/A
8:50 AM57 °FSunny.3 mph72%30.09 "Hg10 mi
8:20 AM54 °FSunny.3 mph77%30.09 "Hg10 mi
7:50 AM52 °FSunny.2 mph82%30.09 "Hg10 mi
7:20 AM50 °FSunny.2 mph82%30.09 "Hg10 mi
8:20 PM
Thu, Jul 30
68 °FSunny.3 mph40%30.01 "Hg10 mi
7:50 PM68 °FSunny.3 mph40%30.01 "Hg10 mi
7:20 PM68 °FSunny.5 mph40%30.01 "Hg10 mi
Weather by CustomWeather, © 2015

See weather overviewHow to use our weather pages